This is the latest recevied weather packets stored in our database for station/object VK3VJP-13. If no packets are shown the sender has not sent any weather packets the latest 10 day(s).
| Time | Temp. | Humidity | Pressure | Rain* | Wind** | Luminosity | Snow |
|---|---|---|---|---|---|---|---|
| 1777765089 | 13.89° C | 94% | 1008.9 hPa | 6.86 mm | - | - | - |
| 1777764789 | 13.89° C | 94% | 1009.1 hPa | 4.06 mm | - | - | - |
| 1777764489 | 13.89° C | 94% | 1008.6 hPa | 3.3 mm | - | - | - |
| 1777764189 | 13.89° C | 94% | 1008.7 hPa | 3.81 mm | - | - | - |
| 1777763889 | 13.89° C | 94% | 1008.6 hPa | 6.6 mm | - | - | - |
| 1777763589 | 13.89° C | 94% | 1008.8 hPa | 7.62 mm | - | - | - |
| 1777763289 | 13.89° C | 94% | 1008.8 hPa | 7.62 mm | - | - | - |
| 1777762989 | 13.89° C | 94% | 1008.7 hPa | 7.37 mm | - | - | - |
| 1777762689 | 13.89° C | 94% | 1008.8 hPa | 5.33 mm | - | - | - |
| 1777762389 | 13.89° C | 94% | 1008.7 hPa | 5.33 mm | - | - | - |
| 1777762089 | 13.89° C | 94% | 1008.6 hPa | 5.33 mm | - | - | - |
| 1777761789 | 13.89° C | 94% | 1008.8 hPa | 5.33 mm | - | - | - |
| 1777761489 | 13.89° C | 94% | 1009 hPa | 5.33 mm | - | - | - |
| 1777761189 | 13.89° C | 93% | 1009.1 hPa | 5.08 mm | - | - | - |
| 1777760889 | 13.89° C | 93% | 1009.2 hPa | 5.33 mm | - | - | - |
| 1777760589 | 13.89° C | 93% | 1009.2 hPa | 4.57 mm | - | - | - |
| 1777760289 | 13.89° C | 93% | 1009.1 hPa | 1.27 mm | - | - | - |
| 1777759989 | 13.89° C | 93% | 1008.1 hPa | 0.25 mm | - | - | - |
| 1777759689 | 13.89° C | 93% | 1007.9 hPa | 0.25 mm | - | - | - |
| 1777759390 | 13.89° C | 93% | 1008 hPa | 0.25 mm | - | - | - |
| 1777759089 | 13.33° C | 93% | 1008.2 hPa | 0.25 mm | - | - | - |
| 1777758790 | 13.33° C | 93% | 1008.2 hPa | 0.25 mm | - | - | - |
| 1777758490 | 13.33° C | 93% | 1008.3 hPa | 0.25 mm | - | - | - |
| 1777758189 | 13.33° C | 93% | 1008.4 hPa | 0.25 mm | - | - | - |
| 1777757889 | 13.33° C | 93% | 1008.8 hPa | 0.25 mm | - | - | - |
* Rain latest hour (hover to see other rain measurements)
** Current wind speed in m/s (hover to see current wind gust speed)